Regional Weather Roundup
Issued by NWS

Home | Current Version | Previous Version | Text Only | Print | Product List | Glossary Off
Versions: 1 2 3 4 5 6 7 8 9 10 11 12 13 14 15 16 17 18 19 20 21 22 23 24 25 26 27 28 29 30 31 32 33 34 35 36 37 38 39 40 41 42 43 44 45 46 47 48 49 50

000
ASUS43 KIND 172200
RWRIN

WEATHER ROUNDUP FOR INDIANA
NATIONAL WEATHER SERVICE INDIANAPOLIS IN
600 PM EDT THU AUG 17 2017

NOTE: "FAIR" INDICATES FEW OR NO CLOUDS BELOW 12,000 FEET WITH NO
SIGNIFICANT WEATHER AND/OR OBSTRUCTIONS TO VISIBILITY.

* - STATION DOES NOT REPORT WEATHER SUCH AS PRECIPITATION OR FOG.

+ - STATION NOT QUALITY CONTROLLED BY THE NATIONAL WEATHER SERVICE.
    USE DATA WITH CAUTION...ESPECIALLY DEWPOINT AND RELATIVE
    HUMIDITY OBSERVATIONS.

INZ001>003-010>013-019-020-172300-
NORTHWEST INDIANA

CITY           SKY/WX    TMP DP  RH WIND       PRES   REMARKS
MICHIGAN CITY+ PTSUNNY   79  64  61 W15G23    29.74F
MONTICELLO +   MOSUNNY   83  65  56 W13       29.79R
RENSSELAER +   CLOUDY    81  63  54 SW15G21   29.79S

$$

LMZ046-743>745-172300-
SOUTHERN LAKE MICHIGAN

STATION/POSITION TIME  TEMP    WIND        PRES    WAVE
                       AIR SEA DIR/SP/G            HT
                 (UTC) (F)     (DEG/KT/KT) (MB)    (FT)
BURNS HARBOR     2140   80     240/ 18/ 23 1007.5S
MICHIGAN CITY    2130   78     210/ 15/ 16   N/A
5NW MICH CITY    2150   78 75  240/ 14/ 19   N/A     3

$$

INZ004-005-014>016-021>024-172300-
NORTH CENTRAL INDIANA

CITY           SKY/WX    TMP DP  RH WIND       PRES   REMARKS
ELKHART        MOSUNNY   82  64  54 W21G29    29.75R
GOSHEN         CLOUDY    81  66  60 SW16      29.76R
PERU/GRISSOM   MOSUNNY   83  69  63 W16       29.79S
SOUTH BEND     SUNNY     82  68  62 SW20G28   29.75S
WARSAW +       MOSUNNY   81  70  69 W15G21    29.77S

$$

INZ006>009-017-018-025>027-172300-
NORTHEAST INDIANA

CITY           SKY/WX    TMP DP  RH WIND       PRES   REMARKS
FORT WAYNE     MOSUNNY   83  68  60 SW18      29.79R
KENDALLVILLE + MOSUNNY   81  70  68 SW12G18   29.78R

$$

INZ028-029-035-036-043>045-051>053-172300-
WEST CENTRAL INDIANA

CITY           SKY/WX    TMP DP  RH WIND       PRES   REMARKS
LAFAYETTE      PTSUNNY   83  69  62 SW10G20   29.79R
TERRE HAUTE    CLOUDY    84  71  65 SW10      29.83S

$$

INZ030>032-037>040-046>048-054>057-064-065-172300-
CENTRAL INDIANA

CITY           SKY/WX    TMP DP  RH WIND       PRES   REMARKS
GREENWOOD *+   PTSUNNY   83  66  57 W12G18    29.85R
INDIANAPOLIS   PTSUNNY   84  69  60 SW16G25   29.82F
-EAGLE CREEK   PTSUNNY   83  68  60 SW9G17    29.82S
KOKOMO +       PTSUNNY   82  70  66 W16       29.82R
MT COMFORT *+  MOSUNNY   82  70  65 SW13G21   29.84S
SHELBYVILLE    SUNNY     85  67  54 W12       29.83S

$$

INZ033-034-041-042-049-050-058-059-172300-
EAST CENTRAL INDIANA

CITY           SKY/WX    TMP DP  RH WIND       PRES   REMARKS
MUNCIE         MOSUNNY   85  68  56 SW12      29.83R
RICHMOND +     MOSUNNY   81  68  65 W20G25    29.86S

$$

INZ060-061-067>069-081>083-085>088-172300-
SOUTHWEST INDIANA

CITY           SKY/WX    TMP DP  RH WIND       PRES   REMARKS
EVANSVILLE     MOSUNNY   87  70  56 SW14      29.85F
HUNTINGBURG +  CLOUDY    85  71  63 SW10      29.86R

$$

INZ062-063-066-070>080-084-089>092-172300-
SOUTH CENTRAL AND SOUTHEAST INDIANA

CITY           SKY/WX    TMP DP  RH WIND       PRES   REMARKS
BLOOMINGTON    PTSUNNY   84  67  56 W8        29.85S
MADISON *+     MOSUNNY   88  73  62 CALM      29.87F HX  96
SEYMOUR +      SUNNY     90  68  48 W10       29.83F

$$





USA.gov is the U.S. government's official web portal to all federal, state and local government web resources and services.